EW9927 Weather Reports


Display with metric or nautical units.
time (UTC)temp
F
wind
direction
speed
MPH
gust
MPH
rain 1hr
in
rain 24hr
in
rain mn
in
humidity
%
barometer
mb
20260504203646 85 179 0.0 7.0 0.00 0.00 0.00 55 1010.5
20260504203400 83 118 0.0 7.0 0.00 0.00 0.00 58 1010.5
20260504202636 84 164 3.0 7.0 0.00 0.00 0.00 57 1010.8
20260504202129 83 174 3.0 7.0 0.00 0.00 0.00 56 1010.8
20260504201624 83 183 0.0 6.0 0.00 0.00 0.00 58 1010.8
20260504201114 85 135 2.0 2.0 0.00 0.00 0.00 57 1011.2
20260504200611 84 131 0.0 7.0 0.00 0.00 0.00 56 1011.2
20260504200328 83 154 4.0 10.0 0.00 0.00 0.00 57 1011.2
20260504195557 85 134 0.0 10.0 0.00 0.00 0.00 57 1011.2
20260504195050 85 221 3.0 6.0 0.00 0.00 0.00 56 1011.2
20260504194548 85 155 2.0 6.0 0.00 0.00 0.00 54 1011.5
20260504194041 85 123 0.0 8.0 0.00 0.00 0.00 53 1011.5
20260504193535 86 166 4.0 8.0 0.00 0.00 0.00 54 1011.5
20260504193250 86 163 0.0 6.0 0.00 0.00 0.00 53 1011.5
20260504192526 85 124 0.0 7.0 0.00 0.00 0.00 54 1011.5
20260504192239 85 243 1.0 7.0 0.00 0.00 0.00 53 1011.9
20260504191511 85 149 4.0 6.0 0.00 0.00 0.00 54 1011.9
20260504191228 85 198 2.0 9.0 0.00 0.00 0.00 53 1011.9
20260504185953 83 174 0.0 6.0 0.00 0.00 0.00 55 1011.9
20260504185715 85 183 1.0 6.0 0.00 0.00 0.00 55 1011.9
20260504184937 85 141 0.0 6.0 0.00 0.00 0.00 55 1012.2
20260504184653 85 207 0.0 4.0 0.00 0.00 0.00 53 1012.2
20260504183931 85 172 2.0 4.0 0.00 0.00 0.00 54 1012.2
20260504183423 85 166 0.0 10.0 0.00 0.00 0.00 54 1012.2
20260504182917 83 261 2.0 10.0 0.00 0.00 0.00 55 1011.9
20260504182412 84 111 2.0 7.0 0.00 0.00 0.00 55 1011.9
20260504181905 83 152 2.0 7.0 0.00 0.00 0.00 56 1012.2
20260504181357 84 120 0.0 4.0 0.00 0.00 0.00 56 1012.5
20260504181113 84 155 1.0 6.0 0.00 0.00 0.00 55 1012.5
20260504180322 83 145 0.0 6.0 0.00 0.00 0.00 55 1012.5
20260504175815 83 132 0.0 9.0 0.00 0.00 0.00 56 1012.9
20260504175307 84 148 1.0 9.0 0.00 0.00 0.00 54 1012.5
20260504175020 83 201 2.0 7.0 0.00 0.00 0.00 56 1012.9
20260504174257 82 166 2.0 10.0 0.00 0.00 0.00 58 1012.9
20260504173751 82 114 4.0 10.0 0.00 0.00 0.00 57 1012.9
20260504173507 82 161 5.0 8.0 0.00 0.00 0.00 56 1012.9
20260504172735 83 177 0.0 6.0 0.00 0.00 0.00 55 1012.9
20260504172235 83 345 0.0 4.0 0.00 0.00 0.00 55 1012.9
20260504171728 83 181 0.0 4.0 0.00 0.00 0.00 54 1013.2
20260504171436 82 91 0.0 6.0 0.00 0.00 0.00 56 1013.2
20260504170935 82 126 3.0 6.0 0.00 0.00 0.00 57 1013.2
20260504170212 83 176 1.0 6.0 0.00 0.00 0.00 57 1013.6
20260504160108 79 139 4.0 7.0 0.00 0.00 0.00 61 1014.2
20260504151007 77 188 0.0 8.0 0.00 0.00 0.00 63 1014.2
20260504150457 77 328 1.0 9.0 0.00 0.00 0.00 63 1014.2
20260504140849 72 160 0.0 1.0 0.00 0.00 0.00 66 1014.2
20260504140600 72 74 0.0 2.0 0.00 0.00 0.00 67 1014.2
20260504130751 0 0.0 0.0 0.00 0.00 0.00 1014.2
20260504130247 0 0.0 0.0 0.00 0.00 0.00 1014.2
20260504120120 0 0.0 0.0 0.00 0.00 0.00 1013.9
20260504110534 0 0.0 0.0 0.00 0.00 0.00 1013.9
20260504100428 0 0.0 0.0 0.00 0.00 0.00 1013.9
20260504100144 0 0.0 0.0 0.00 0.00 0.00 1014.2
20260504082007 0 0.0 0.0 0.00 0.00 0.00 1014.6
20260504081240 0 0.0 0.0 0.00 0.00 0.00 1014.6
20260504080733 0 0.0 0.0 0.00 0.00 0.00 1014.9
20260504080227 0 0.0 0.0 0.00 0.00 0.00 1014.9
20260504070120 0 0.0 0.0 0.00 0.00 0.00 1015.9
20260504050436 0 0.0 0.0 0.00 0.00 0.00 1016.6
20260504045925 0 0.0 0.0 0.00 0.00 0.00 1016.6
20260504045419 0 0.0 0.0 0.00 0.00 0.00 1016.6
20260504044916 0 0.0 0.0 0.00 0.00 0.00 1016.6
20260504044408 0 0.0 0.0 0.00 0.00 0.00 1016.6
20260504043908 0 0.0 0.0 0.00 0.00 0.00 1016.6
20260504043404 0 0.0 0.0 0.00 0.00 0.00 1016.6
20260504042858 0 0.0 0.0 0.00 0.00 0.00 1016.6
20260504042353 0 0.0 0.0 0.00 0.00 0.00 1016.6
20260504041340 0 0.0 0.0 0.00 0.00 0.00 1016.9
20260504040834 0 0.0 0.0 0.00 0.00 0.00 1016.9
20260504040330 0 0.0 0.0 0.00 0.00 0.00 1016.6
20260504035829 0 0.0 0.0 0.00 0.00 0.00 1016.9
20260504035547 0 0.0 0.0 0.00 0.00 0.00 1016.6
20260504034820 0 0.0 0.0 0.00 0.00 0.00 1016.9
20260504034034 68 148 0.0 0.0 0.00 0.00 0.00 63 1016.9
20260504033310 68 148 0.0 0.0 0.00 0.00 0.00 63 1016.9
20260504032803 68 148 0.0 0.0 0.00 0.00 0.00 63 1016.9
20260504032257 69 136 0.0 0.0 0.00 0.00 0.00 61 1016.9
20260504031750 69 136 0.0 0.0 0.00 0.00 0.00 61 1016.9
20260504031502 69 136 0.0 0.0 0.00 0.00 0.00 61 1016.6
20260504030733 0 0.0 0.0 0.00 0.00 0.00 1016.9
20260504030229 69 147 0.0 0.0 0.00 0.00 0.00 61 1016.6
20260504025728 69 136 0.0 0.0 0.00 0.00 0.00 60 1016.6
20260504025218 69 179 0.0 1.0 0.00 0.00 0.00 60 1016.6
20260504024928 69 142 0.0 1.0 0.00 0.00 0.00 60 1016.6
20260504024202 70 121 0.0 0.0 0.00 0.00 0.00 60 1016.3
20260504023703 70 121 0.0 0.0 0.00 0.00 0.00 60 1016.6
20260504023153 70 129 0.0 0.0 0.00 0.00 0.00 59 1016.3
20260504022644 70 130 0.0 1.0 0.00 0.00 0.00 59 1016.6
20260504022138 70 125 0.0 3.0 0.00 0.00 0.00 59 1016.6
20260504021636 71 132 0.0 3.0 0.00 0.00 0.00 59 1016.6
20260504021130 71 114 0.0 1.0 0.00 0.00 0.00 58 1016.3
20260504020622 71 145 0.0 4.0 0.00 0.00 0.00 57 1016.3
20260504020114 71 164 3.0 4.0 0.00 0.00 0.00 56 1016.3
20260504015616 72 141 0.0 3.0 0.00 0.00 0.00 56 1016.3
20260504015106 72 150 0.0 1.0 0.00 0.00 0.00 55 1016.3
20260504014557 72 136 0.0 2.0 0.00 0.00 0.00 56 1016.3
20260504014051 72 128 0.0 2.0 0.00 0.00 0.00 55 1016.3
20260504013549 72 119 0.0 2.0 0.00 0.00 0.00 55 1016.3
20260504013042 73 142 0.0 3.0 0.00 0.00 0.00 54 1016.3
20260504012757 73 142 0.0 3.0 0.00 0.00 0.00 53 1016.3
20260504012027 73 136 0.0 0.0 0.00 0.00 0.00 54 1016.3
20260504011526 73 129 0.0 1.0 0.00 0.00 0.00 52 1015.9
20260504011020 73 126 0.0 3.0 0.00 0.00 0.00 52 1015.9
20260504010731 74 100 0.0 3.0 0.00 0.00 0.00 51 1016.3
20260504010002 74 101 0.0 3.0 0.00 0.00 0.00 52 1016.3
20260504005503 74 205 0.0 1.0 0.00 0.00 0.00 50 1015.9
20260504005217 74 111 0.0 3.0 0.00 0.00 0.00 50 1015.9
20260504004446 75 159 0.0 3.0 0.00 0.00 0.00 49 1015.9
20260504003941 75 164 0.0 2.0 0.00 0.00 0.00 49 1016.3
20260504003658 75 151 0.0 2.0 0.00 0.00 0.00 49 1015.9
20260504002932 76 124 0.0 2.0 0.00 0.00 0.00 49 1015.9
20260504002426 76 137 0.0 2.0 0.00 0.00 0.00 47 1015.9
20260504001918 76 142 0.0 2.0 0.00 0.00 0.00 48 1015.9
20260504001415 77 131 0.0 1.0 0.00 0.00 0.00 46 1015.9
20260504001135 78 157 0.0 4.0 0.00 0.00 0.00 46 1015.9
20260504000401 78 147 0.0 4.0 0.00 0.00 0.00 45 1015.9
20260503235852 78 139 0.0 4.0 0.00 0.00 0.00 45 1016.3
20260503235351 78 179 0.0 7.0 0.00 0.00 0.00 45 1016.3
20260503234842 78 125 0.0 7.0 0.00 0.00 0.00 46 1016.3
20260503234334 78 135 0.0 6.0 0.00 0.00 0.00 47 1016.3
20260503233827 79 190 2.0 6.0 0.00 0.00 0.00 44 1016.3
20260503233325 79 134 4.0 6.0 0.00 0.00 0.00 44 1016.3
20260503232820 80 111 0.0 6.0 0.00 0.00 0.00 44 1016.3
20260503232537 79 146 0.0 10.0 0.00 0.00 0.00 44 1016.3
20260503231804 80 140 2.0 10.0 0.00 0.00 0.00 43 1016.3
20260503231305 80 185 3.0 6.0 0.00 0.00 0.00 41 1016.3
20260503230757 81 132 1.0 6.0 0.00 0.00 0.00 42 1016.3
20260503230249 81 121 2.0 6.0 0.00 0.00 0.00 42 1015.9
20260503225743 81 151 0.0 3.0 0.00 0.00 0.00 40 1016.3
20260503225241 81 117 2.0 3.0 0.00 0.00 0.00 37 1016.3
20260503224734 81 116 0.0 3.0 0.00 0.00 0.00 36 1016.6
20260503224227 82 169 0.0 1.0 0.00 0.00 0.00 35 1016.3
20260503223718 82 141 0.0 3.0 0.00 0.00 0.00 36 1016.6
20260503222709 81 124 0.0 3.0 0.00 0.00 0.00 37 1016.6
20260503222201 82 172 1.0 3.0 0.00 0.00 0.00 35 1016.6
20260503221654 83 116 2.0 2.0 0.00 0.00 0.00 35 1016.9
20260503221151 85 151 0.0 1.0 0.00 0.00 0.00 34 1016.9
20260503220137 85 154 0.0 1.0 0.00 0.00 0.00 34 1016.9
20260503215629 84 342 1.0 1.0 0.00 0.00 0.00 33 1016.9
20260503215120 0 0.0 0.0 0.00 0.00 0.00 1016.6
20260503214614 0 0.0 0.0 0.00 0.00 0.00 1016.6
20260503214109 0 0.0 3.0 0.00 0.00 0.00 1016.9
20260503213105 84 142 2.0 3.0 0.00 0.00 0.00 35 1017.3
20260503212555 85 55 0.0 2.0 0.00 0.00 0.00 33 1016.9
20260503212046 84 140 0.0 1.0 0.00 0.00 0.00 35 1017.3
20260503211540 84 100 0.0 2.0 0.00 0.00 0.00 34 1017.3
20260503211036 85 112 0.0 2.0 0.00 0.00 0.00 34 1017.3
20260503210530 84 109 1.0 2.0 0.00 0.00 0.00 34 1017.3
20260503210026 84 109 1.0 2.0 0.00 0.00 0.00 34 1017.3
20260503205517 84 140 0.0 2.0 0.00 0.00 0.00 35 1017.3
20260503204510 83 36 1.0 3.0 0.00 0.00 0.00 37 1017.6